• Join FlightAware (Why Join?)
  • Login
  • US Flag GB Flag 
16:56 EST


 

Airport Tracker/Info


-or-


 

Live Flight TrackerFlight Track Log ✈ AWE1940 ✈ 08-Jan-2014 ✈ KBDL - KCLT

Flight Track Log - Related Links

Times and Time Zones

All times are in EST time to prevent confusion due to time zone crossing. See the AWE1940 flight status page for this flight to view local times or setup timezone preferences in your user account.

Time Position Orientation Groundspeed Altitude Reporting Facility
EST Latitude Longitude Course Direction KTS MPH feet Rate Location/Type
19:21 41.9308 -72.6997 236° Southwest 148 170 1,400  Level Boston Center
19:22 41.9206 -72.7675 259° West 188 216 3,900 1,440 Climbing Boston Center
19:23 41.9094 -72.8492 260° West 219 252 4,400 2,100 Climbing Boston Center
19:24 41.9139 -72.9450 274° West 240 276 8,200 3,240 Climbing Boston Center
19:25 41.9128 -73.0325 269° West 235 270 11,100 2,340 Climbing Boston Center
19:26 41.8435 -73.4130 236° Southwest  Level FlightAware Approximate
19:26 41.9119 -73.1433 269° West 308 354 13,100  Level Boston Center
19:27 41.9108 -73.2592 269° West 312 359 16,500 2,940 Climbing Boston Center
19:28 41.8700 -73.3789 245° Southwest 348 400 19,100 2,280 Climbing Boston Center
19:29 41.7900 -73.4236 203° Southwest 376 433 21,200 1,980 Climbing Boston Center
19:30 41.6731 -73.3825 165° South 429 494 23,300 1,920 Climbing Boston Center
19:31 41.5714 -73.4275 198° South 395 455 25,200 2,340 Climbing Boston Center
19:32 41.4742 -73.5169 215° Southwest 386 444 28,100 2,700 Climbing Boston Center
19:33 41.3889 -73.5900 213° Southwest 370 426 30,800 1,860 Climbing Boston Center
19:34 41.3083 -73.6617 214° Southwest 354 407 32,000 720 Climbing Boston Center
19:35 41.2456 -73.7208 215° Southwest 369 425 32,000  Level New York Center
19:36 41.1625 -73.7944 214° Southwest 364 419 32,000  Level New York Center
19:37 41.0994 -73.8908 229° Southwest 358 412 32,000  Level New York Center
19:38 41.0386 -73.9897 231° Southwest 350 403 32,000  Level New York Center
19:39 40.9817 -74.0886 233° Southwest 350 403 32,000  Level New York Center
19:40 40.9225 -74.1875 232° Southwest 350 403 32,000  Level New York Center
19:41 40.8594 -74.2831 229° Southwest 350 403 32,000  Level New York Center
19:42 40.8000 -74.3842 232° Southwest 350 403 32,000  Level New York Center
19:43 40.7428 -74.4822 232° Southwest 350 403 32,000  Level New York Center
19:44 40.6836 -74.5803 232° Southwest 350 403 32,000  Level New York Center
19:45 40.6239 -74.6783 231° Southwest 350 403 32,000  Level New York Center
19:46 40.5606 -74.7731 229° Southwest 350 403 32,000  Level New York Center
19:47 40.4947 -74.8672 227° Southwest 350 403 32,000  Level New York Center
19:48 40.4289 -74.9617 228° Southwest 350 403 32,000  Level New York Center
19:49 40.3631 -75.0531 227° Southwest 350 403 32,000  Level New York Center
19:50 40.2972 -75.1442 227° Southwest 355 409 32,000  Level New York Center
19:51 40.2333 -75.2381 228° Southwest 355 409 32,000  Level New York Center
19:52 40.1736 -75.3211 227° Southwest 355 409 32,000  Level New York Center
19:53 40.1078 -75.4117 226° Southwest 355 409 32,000  Level New York Center
19:54 40.0394 -75.5047 226° Southwest 355 409 32,000  Level New York Center
19:55 39.9731 -75.5978 227° Southwest 355 409 32,000  Level New York Center
19:56 39.9086 -75.6936 229° Southwest 360 414 32,000  Level New York Center
19:57 39.8483 -75.7894 231° Southwest 355 409 32,000  Level New York Center
19:58 39.7878 -75.8903 232° Southwest 355 409 32,000  Level New York Center
19:59 39.7208 -75.9856 228° Southwest 360 414 32,000  Level New York Center
20:00 39.6644 -76.0836 233° Southwest 360 414 32,000  Level New York Center
20:02 39.5492 -76.2564 229° Southwest 349 402 32,000  Level Washington Center
20:03 39.4903 -76.3525 232° Southwest 349 402 32,000  Level Washington Center
20:04 39.4292 -76.4458 230° Southwest 349 402 32,000  Level Washington Center
20:05 39.3578 -76.5525 229° Southwest 354 407 32,000  Level Washington Center
20:06 39.2986 -76.6456 231° Southwest 354 407 32,000  Level Washington Center
20:07 39.2372 -76.7411 230° Southwest 354 407 32,000  Level Washington Center
20:08 39.1758 -76.8367 230° Southwest 348 400 32,000  Level Washington Center
20:09 39.1228 -76.9214 231° Southwest 348 400 32,000  Level Washington Center
20:10 39.0592 -77.0164 229° Southwest 348 400 32,000  Level Washington Center
20:11 38.9872 -77.1031 223° Southwest 353 406 32,000  Level Washington Center
20:12 38.9133 -77.1844 221° Southwest 353 406 32,000  Level Washington Center
20:13 38.8392 -77.2653 220° Southwest 358 412 32,000  Level Washington Center
20:14 38.7631 -77.3461 220° Southwest 358 412 32,000  Level Washington Center
20:15 38.6889 -77.4294 221° Southwest 358 412 32,000  Level Washington Center
20:16 38.6144 -77.5100 220° Southwest 358 412 32,000  Level Washington Center
20:17 38.5383 -77.5903 220° Southwest 358 412 32,000  Level Washington Center
20:18 38.4639 -77.6706 220° Southwest 358 412 32,000  Level Washington Center
20:19 38.3894 -77.7533 221° Southwest 358 412 32,000  Level Washington Center
20:20 38.3150 -77.8358 221° Southwest 358 412 32,000  Level Washington Center
20:21 38.2406 -77.9128 219° Southwest 358 412 32,000  Level Washington Center
20:22 38.1639 -77.9950 220° Southwest 358 412 32,000  Level Washington Center
20:23 38.0869 -78.0769 220° Southwest 358 412 32,000  Level Washington Center
20:24 38.0125 -78.1561 220° Southwest 358 412 32,000  Level Washington Center
20:25 37.9456 -78.2592 231° Southwest 346 398 32,000  Level Washington Center
20:26 37.8789 -78.3517 228° Southwest 352 405 32,000  Level Washington Center
20:27 37.8139 -78.4464 229° Southwest 357 411 32,000  Level Washington Center
20:28 37.7492 -78.5386 228° Southwest 362 417 32,000  Level Washington Center
20:29 37.6908 -78.6203 228° Southwest 362 417 32,000  Level Washington Center
20:30 37.6258 -78.7147 229° Southwest 362 417 32,000  Level Washington Center
20:31 37.5586 -78.8089 228° Southwest 357 411 32,000  Level Washington Center
20:32 37.4936 -78.9003 228° Southwest 357 411 32,000  Level Washington Center
20:33 37.4283 -78.9944 229° Southwest 357 411 32,000  Level Washington Center
20:34 37.3547 -79.0931 227° Southwest 357 411 32,000  Level Washington Center
20:35 37.2872 -79.1864 228° Southwest 357 411 32,000  Level Washington Center
20:36 37.2117 -79.2717 222° Southwest 357 411 32,000  Level Washington Center
20:37 37.1239 -79.3431 213° Southwest 370 426 32,000  Level Washington Center
20:38 37.0403 -79.4142 214° Southwest 375 432 32,000  Level Washington Center
20:39 36.9525 -79.4853 213° Southwest 380 437 32,000  Level Washington Center
20:40 36.8731 -79.5489 213° Southwest 380 437 32,000  Level Washington Center
20:41 36.7894 -79.6197 214° Southwest 380 437 32,000  Level Washington Center
20:43 36.6175 -79.7556 212° Southwest 367 422 32,000 -420 Level Atlanta Center
20:44 36.5303 -79.8275 214° Southwest 372 428 30,800 -2,580 Descending Atlanta Center
20:45 36.4411 -79.9019 214° Southwest 378 435 26,900 -3,180 Descending Atlanta Center
20:46 36.3536 -79.9683 211° Southwest 378 435 24,500 -1,500 Descending Atlanta Center
20:47 36.2706 -80.0419 216° Southwest 368 423 24,000 -300 Descending Atlanta Center
20:48 36.1914 -80.1103 215° Southwest 358 412 24,000 -900 Level Atlanta Center
20:49 36.1164 -80.1756 215° Southwest 353 406 22,300 -1,740 Descending Atlanta Center
20:50 36.0453 -80.2381 215° Southwest 338 389 20,600 -1,800 Descending Atlanta Center
20:51 35.9781 -80.2925 213° Southwest 327 376 18,700 -1,920 Descending Atlanta Center
20:52 35.9092 -80.3547 216° Southwest 322 371 16,800 -2,220 Descending Atlanta Center
20:52 35.8725 -80.3844 213° Southwest 311 358 15,700 -2,100 Descending Atlanta Center
20:53 35.8378 -80.4142 215° Southwest 322 371 14,700 -1,380 Descending Atlanta Center
20:53 35.8094 -80.4411 218° Southwest 289 333 14,300 -1,320 Descending Atlanta Center
20:54 35.7767 -80.4656 211° Southwest 310 357 13,400 -1,800 Descending Atlanta Center
20:54 35.7525 -80.4869 216° Southwest 251 289 12,700 -2,220 Descending Atlanta Center
20:55 35.7156 -80.5142 211° Southwest 288 331 11,200 -2,220 Descending Atlanta Center
20:55 35.6914 -80.5408 222° Southwest 263 303 10,500 -1,740 Descending Atlanta Center
20:56 35.6525 -80.5706 212° Southwest 274 315 9,500 -1,680 Descending Atlanta Center
20:56 35.6344 -80.5892 220° Southwest 271 312 9,000 -1,920 Descending Atlanta Center
20:57 35.6028 -80.6594 241° Southwest 261 300 7,100 -1,740 Descending Atlanta Center
20:58 35.5961 -80.7211 262° West 252 290 6,000 -1,200 Descending Atlanta Center
20:58 35.5950 -80.7544 268° West 260 299 5,900 -1,020 Descending Atlanta Center
20:59 35.5922 -80.8056 266° West 247 284 5,000 -1,380 Descending Atlanta Center
20:59 35.5828 -80.8417 252° West 237 273 4,400 -1,020 Descending Atlanta Center
21:00 35.5628 -80.8756 234° Southwest 241 277 4,000 -420 Descending Atlanta Center
21:00 35.5364 -80.9072 224° Southwest 236 272 4,000 -120 Level Atlanta Center
21:01 35.5094 -80.9133 190° South 221 254 3,900  Descending Atlanta Center
21:01 35.4828 -80.9272 203° Southwest 194 223 4,000 60 Climbing Atlanta Center
21:02 35.4600 -80.9358 197° South 204 235 4,000  Level Atlanta Center
21:02 35.4333 -80.9544 210° Southwest 184 212 4,000 -120 Level Atlanta Center
21:03 35.3811 -80.9539 180° South 184 212 3,900 -540 Descending Atlanta Center
21:04 35.3372 -80.9481 174° South 173 199 3,000 -960 Descending Atlanta Center
21:05 35.2869 -80.9447 177° South 154 177 2,000 -840 Descending Atlanta Center
21:06 35.2536 -80.9408 175° South 120 138 1,300 -720 Descending Atlanta Center